When you browse on this site, cookies collect data to enhance your experience and personalize the content and advertising you see.
Visit our Privacy Policy to learn more. By continuing to use the site, you agree to this use of cookies and data.
  • In Hungary
  • List of Countries
  • For 7 days
  • Water Temperature
  • Weather Map
  • News
  • Weather Widgets
  • user-avatar
    Login

    Hourly Weather Bolshoe Nikitino

    Today, 20 September, Friday

    Time Temperature Precipitation Wind Pressure Humidity
    00:00 +3°C° 0 mm 1 mps 741 mmHg 87%
    01:00 +3°C° 0 mm 1 mps 741 mmHg 88%
    02:00 +3°C° 0 mm 1 mps 741 mmHg 89%
    03:00 +3°C° 0 mm 1 mps 741 mmHg 90%
    04:00 +3°C° 0 mm 1 mps 741 mmHg 91%
    05:00 +3°C° 0 mm 1 mps 741 mmHg 91%
    06:00 +4°C° 0 mm 1 mps 741 mmHg 87%
    07:00 +5°C° 0 mm 1 mps 741 mmHg 82%
    08:00 +6°C° 0 mm 1 mps 741 mmHg 78%
    09:00 +7°C° 0 mm 1 mps 741 mmHg 70%
    10:00 +8°C° 0 mm 1 mps 741 mmHg 63%
    11:00 +8°C° 0 mm 2 mps 741 mmHg 56%
    12:00 +8°C° 0 mm 2 mps 741 mmHg 57%
    13:00 +8°C° 0 mm 3 mps 741 mmHg 59%
    14:00 +8°C° 0 mm 3 mps 740 mmHg 60%
    15:00 +7°C° 0.2 mm 3 mps 740 mmHg 68%
    16:00 +6°C° 0.2 mm 2 mps 740 mmHg 77%
    17:00 +5°C° 0.2 mm 2 mps 740 mmHg 85%
    18:00 +4°C° 0 mm 2 mps 740 mmHg 88%
    19:00 +3°C° 0 mm 2 mps 741 mmHg 90%
    20:00 +2°C° 0 mm 2 mps 741 mmHg 92%
    21:00 +1°C° 0 mm 2 mps 741 mmHg 92%
    22:00 +1°C° 0 mm 2 mps 741 mmHg 92%
    23:00 +1°C° 0 mm 2 mps 741 mmHg 92%

    Tomorrow, 21 September, Saturday

    Time Temperature Precipitation Wind Pressure Humidity
    00:00 +1°C° 0 mm 2 mps 741 mmHg 93%
    01:00 -1°C° 0 mm 2 mps 741 mmHg 93%
    02:00 -1°C° 0 mm 2 mps 741 mmHg 94%
    03:00 -1°C° 0 mm 2 mps 741 mmHg 94%
    04:00 -2°C° 0 mm 2 mps 741 mmHg 95%
    05:00 -2°C° 0 mm 2 mps 741 mmHg 96%
    06:00 -1°C° 0 mm 2 mps 741 mmHg 91%
    07:00 +2°C° 0 mm 2 mps 741 mmHg 87%
    08:00 +3°C° 0 mm 2 mps 741 mmHg 83%
    09:00 +3°C° 0 mm 3 mps 740 mmHg 76%
    10:00 +5°C° 0 mm 3 mps 740 mmHg 70%
    11:00 +7°C° 0 mm 3 mps 740 mmHg 63%
    12:00 +8°C° 0.2 mm 3 mps 740 mmHg 62%
    13:00 +8°C° 0.2 mm 3 mps 739 mmHg 61%
    14:00 +8°C° 0.2 mm 3 mps 739 mmHg 60%
    15:00 +7°C° 0.2 mm 2 mps 739 mmHg 66%
    16:00 +6°C° 0.2 mm 2 mps 738 mmHg 73%
    17:00 +6°C° 0.2 mm 1 mps 738 mmHg 79%
    18:00 +5°C° 0 mm 1 mps 738 mmHg 83%
    19:00 +4°C° 0 mm 1 mps 738 mmHg 87%
    20:00 +3°C° 0 mm 1 mps 737 mmHg 90%
    21:00 +3°C° 0 mm 1 mps 737 mmHg 92%
    22:00 +3°C° 0 mm 1 mps 737 mmHg 93%
    23:00 +3°C° 0 mm 1 mps 736 mmHg 94%

    Day after tomorrow, 22 September, Sunday

    Time Temperature Precipitation Wind Pressure Humidity
    00:00 +3°C° 0 mm 1 mps 736 mmHg 94%
    01:00 +3°C° 0 mm 1 mps 736 mmHg 95%
    02:00 +3°C° 0 mm 1 mps 735 mmHg 95%
    03:00 +3°C° 0.2 mm 1 mps 735 mmHg 95%
    04:00 +4°C° 0.2 mm 1 mps 734 mmHg 96%
    05:00 +3°C° 0.2 mm 0 mps 734 mmHg 96%
    06:00 +4°C° 0.7 mm 1 mps 733 mmHg 96%
    07:00 +4°C° 0.7 mm 1 mps 733 mmHg 96%
    08:00 +3°C° 0.7 mm 2 mps 733 mmHg 96%
    09:00 +4°C° 0.4 mm 2 mps 733 mmHg 92%
    10:00 +3°C° 0.4 mm 3 mps 733 mmHg 88%
    11:00 +4°C° 0.4 mm 4 mps 733 mmHg 84%
    12:00 +3°C° 0.2 mm 4 mps 733 mmHg 83%
    13:00 +3°C° 0.2 mm 4 mps 734 mmHg 82%
    14:00 +2°C° 0.2 mm 5 mps 734 mmHg 81%
    15:00 +2°C° 0.1 mm 5 mps 735 mmHg 83%
    16:00 +1°C° 0.1 mm 5 mps 735 mmHg 85%
    17:00 +1°C° 0.1 mm 5 mps 736 mmHg 87%
    18:00 0°C° 0 mm 5 mps 736 mmHg 89%
    19:00 0°C° 0 mm 4 mps 737 mmHg 91%
    20:00 -1°C° 0 mm 4 mps 737 mmHg 92%
    21:00 -1°C° 0.1 mm 4 mps 738 mmHg 92%
    22:00 0°C° 0.1 mm 4 mps 738 mmHg 92%
    23:00 0°C° 0.1 mm 4 mps 739 mmHg 91%

    23 September, Monday

    Time Temperature Precipitation Wind Pressure Humidity
    00:00 0°C° 0 mm 4 mps 739 mmHg 92%
    01:00 0°C° 0 mm 4 mps 740 mmHg 93%
    02:00 -1°C° 0 mm 4 mps 740 mmHg 93%
    03:00 0°C° 0 mm 4 mps 740 mmHg 93%
    04:00 0°C° 0 mm 4 mps 741 mmHg 93%
    05:00 0°C° 0 mm 4 mps 741 mmHg 93%
    06:00 0°C° 0 mm 4 mps 741 mmHg 89%
    07:00 0°C° 0 mm 5 mps 741 mmHg 84%
    08:00 0°C° 0 mm 5 mps 741 mmHg 80%
    09:00 +1°C° 0 mm 5 mps 741 mmHg 76%
    10:00 +2°C° 0 mm 5 mps 741 mmHg 72%
    11:00 +2°C° 0 mm 5 mps 741 mmHg 69%
    12:00 +3°C° 0.2 mm 5 mps 741 mmHg 68%
    13:00 +3°C° 0.2 mm 5 mps 741 mmHg 68%
    14:00 +3°C° 0.2 mm 5 mps 741 mmHg 67%
    15:00 +4°C° 0.1 mm 4 mps 741 mmHg 72%
    16:00 +3°C° 0.1 mm 4 mps 741 mmHg 78%
    17:00 +3°C° 0.1 mm 3 mps 741 mmHg 83%
    18:00 +1°C° 0.1 mm 3 mps 742 mmHg 86%
    19:00 +1°C° 0.1 mm 2 mps 742 mmHg 88%
    20:00 -1°C° 0.1 mm 2 mps 742 mmHg 90%
    21:00 -1°C° 0 mm 2 mps 742 mmHg 91%
    22:00 -2°C° 0 mm 2 mps 742 mmHg 92%
    23:00 -3°C° 0 mm 2 mps 742 mmHg 93%

    24 September, Tuesday

    Time Temperature Precipitation Wind Pressure Humidity
    00:00 -3°C° 0 mm 2 mps 743 mmHg 93%
    01:00 -3°C° 0 mm 2 mps 743 mmHg 93%
    02:00 -3°C° 0 mm 2 mps 743 mmHg 93%
    03:00 -3°C° 0 mm 2 mps 744 mmHg 94%
    04:00 -3°C° 0 mm 2 mps 744 mmHg 94%
    05:00 -3°C° 0 mm 2 mps 744 mmHg 95%
    06:00 -2°C° 0 mm 2 mps 744 mmHg 91%
    07:00 -1°C° 0 mm 2 mps 744 mmHg 86%
    08:00 +1°C° 0 mm 2 mps 744 mmHg 82%
    09:00 +3°C° 0 mm 2 mps 744 mmHg 76%
    10:00 +4°C° 0 mm 2 mps 745 mmHg 70%
    11:00 +5°C° 0 mm 2 mps 745 mmHg 64%
    12:00 +6°C° 0 mm 2 mps 745 mmHg 62%
    13:00 +6°C° 0 mm 2 mps 745 mmHg 60%
    14:00 +6°C° 0 mm 2 mps 745 mmHg 57%
    15:00 +5°C° 0.1 mm 2 mps 745 mmHg 64%
    16:00 +4°C° 0.1 mm 2 mps 745 mmHg 71%
    17:00 +3°C° 0.1 mm 2 mps 745 mmHg 79%
    18:00 +3°C° 0 mm 1 mps 745 mmHg 83%
    19:00 +2°C° 0 mm 1 mps 745 mmHg 88%
    20:00 +1°C° 0 mm 1 mps 745 mmHg 92%
    21:00 +1°C° 0 mm 1 mps 745 mmHg 93%
    22:00 0°C° 0 mm 1 mps 745 mmHg 94%
    23:00 0°C° 0 mm 1 mps 745 mmHg 94%

    25 September, Wednesday

    Time Temperature Precipitation Wind Pressure Humidity
    00:00 0°C° 0 mm 1 mps 745 mmHg 95%
    01:00 0°C° 0 mm 1 mps 745 mmHg 95%
    02:00 0°C° 0 mm 1 mps 745 mmHg 96%
    03:00 0°C° 0 mm 1 mps 745 mmHg 96%
    04:00 0°C° 0 mm 1 mps 745 mmHg 96%
    05:00 0°C° 0 mm 1 mps 745 mmHg 97%
    06:00 +1°C° 0 mm 1 mps 745 mmHg 92%
    07:00 +2°C° 0 mm 1 mps 745 mmHg 87%
    08:00 +3°C° 0 mm 1 mps 745 mmHg 83%
    09:00 +3°C° 0 mm 2 mps 745 mmHg 76%
    10:00 +4°C° 0 mm 2 mps 745 mmHg 69%
    11:00 +6°C° 0 mm 2 mps 745 mmHg 63%
    12:00 +6°C° 0 mm 2 mps 745 mmHg 62%
    13:00 +6°C° 0 mm 2 mps 745 mmHg 62%
    14:00 +6°C° 0 mm 2 mps 745 mmHg 61%
    15:00 +5°C° 0 mm 2 mps 745 mmHg 67%
    16:00 +5°C° 0 mm 1 mps 744 mmHg 73%
    17:00 +4°C° 0 mm 1 mps 744 mmHg 78%
    18:00 +4°C° 0 mm 1 mps 744 mmHg 81%
    19:00 +3°C° 0 mm 1 mps 745 mmHg 84%
    20:00 +2°C° 0 mm 1 mps 745 mmHg 86%
    21:00 +2°C° 0 mm 1 mps 745 mmHg 88%
    22:00 +2°C° 0 mm 1 mps 745 mmHg 90%
    23:00 +1°C° 0 mm 1 mps 745 mmHg 92%
    Show more